Regional Weather Roundup
Issued by NWS

Home | Current Version | Previous Version | Graphics & Text | Print | Product List | Glossary On
Versions: 1 2 3 4 5 6 7 8 9 10 11 12 13 14 15 16 17 18 19 20 21 22 23 24 25 26 27
000
ASUS45 KBOU 241507
RWRCO

WEATHER ROUNDUP FOR COLORADO
NATIONAL WEATHER SERVICE DENVER/BOULDER CO
900 AM MDT SAT JUN 24 2017

NOTE: "FAIR" INDICATES FEW OR NO CLOUDS BELOW 12000 FEET WITH NO
SIGNIFICANT WEATHER AND/OR OBSTRUCTIONS TO VISIBILITY.

COZ001>005-013-030-031-241600-
...NORTHWEST COLORADO...

CITY           SKY/WX    TMP DP  RH WIND       PRES   REMARKS
CRAIG          FAIR      58  33  39 CALM      30.35S
HAYDEN         FAIR      55  34  44 W5        30.36R
MEEKER         FAIR      56  36  47 SW5       30.34S
RABBIT EARS PA FAIR      46  30  53 W5        30.53R
STEAMBOAT SPGS FAIR      53  37  55 CALM      30.36R
WALDEN         FAIR      50  37  62 CALM      30.43R
$$

COZ006>008-011-241600-
...WEST CENTRAL VALLEYS...

CITY           SKY/WX    TMP DP  RH WIND       PRES   REMARKS
GRAND JUNCTION FAIR      74  31  20 SE5       30.18S
MONTROSE       FAIR      71  30  21 SE3       30.26S
EAGLE          SUNNY     57  32  38 CALM      30.35F
RIFLE          FAIR      67  32  27 NE6       30.26S
DELTA          FAIR      71  29  20 CALM      30.23S
NUCLA          FAIR      70  27  19 CALM      30.29
$$

COZ017>023-064>068-241600-
...SOUTHWEST COLORADO...

CITY           SKY/WX    TMP DP  RH WIND       PRES   REMARKS
DURANGO        FAIR      66  40  38 E7        30.31S
CORTEZ         FAIR      66  34  30 CALM      30.25S
PAGOSA SPRINGS FAIR      67  37  34 CALM      30.40R
TELLURIDE      FAIR      63  28  27 CALM      30.47S
WOLF CREEK PAS FAIR      46  37  71 S14G22    30.69R
$$

COZ009-010-012-014-032>034-037-058>063-241600-
...CENTRAL COLORADO...

CITY           SKY/WX    TMP DP  RH WIND       PRES   REMARKS
ASPEN          FAIR      60  31  33 VRB3      30.36S
BUENA VISTA    FAIR      57  39  51 CALM      30.40F
COPPER MTN     FAIR      54  25  32 NW5       30.62S
BERTHOUD PASS  FAIR      39  28  65 NW17G23   30.63R
COTTONWOOD PAS FAIR      54  39  58 CALM      30.49F
GUNNISON       FAIR      55  28  35 N3        30.39F
KREMMLING      NOT AVBL
LEADVILLE      FAIR      50  34  54 NW5       30.48S
MONARCH PASS   FAIR      50  21  32 SW13G22   30.73R
SALIDA         FAIR      59  44  56 E5        30.46F
SUNLIGHT       FAIR      50  21  32 NW3       30.59R
WILKERSON PASS FAIR      52  27  37 NW3       30.60R
$$

COZ069>075-241600-
...SAN LUIS VALLEY/SANGRE DE CRISTO MOUNTAINS...

CITY           SKY/WX    TMP DP  RH WIND       PRES   REMARKS
ALAMOSA        FAIR      61  47  59 VRB3      30.37S
DEL NORTE      FAIR      58  40  50 CALM      30.41S
LA VETA PASS   PTSUNNY   54  52  94 MISG      30.64R
SAGUACHE       FAIR      61  39  44 CALM      30.40F
$$

COZ035-036-038>040-241600-
...NORTHERN COLORADO FRONT RANGE...

CITY           SKY/WX    TMP DP  RH WIND       PRES   REMARKS
DENVER INTL AP PTSUNNY   61  48  62 E7        30.33R
DMNS CITY PARK   N/A     60  48  64 E6G15     30.33S
AURORA         PTSUNNY   57  51  81 W3        30.34R
FRONT RANGE AP FAIR      61  50  67 E9        30.34R
ERIE MUNI ARPT CLOUDY    58  50  74 N5        30.33S
BOULDER MUN AP CLOUDY    57  50  77 N5        30.34S
CENTENNIAL     FAIR      56  48  74 N3        30.35R
BROOMFIELD     CLOUDY    57  50  77 NW9         N/A  FOG
FORT COLLINS   CLOUDY    60  39  45 VRB3      30.34S
LONGMONT       CLOUDY    63  48  59 N6        30.34F
$$

COZ041-046-047-076>085-087-088-241600-
...PIKES PEAK/PALMER DIVIDE AND SOUTHERN FOOTHILLS...

CITY           SKY/WX    TMP DP  RH WIND       PRES   REMARKS
COLO. SPRINGS  PTSUNNY   60  46  59 S7        30.36S
A. F. ACADEMY  FAIR      60  44  55 S12       30.35S
SCHRIEVER AFB  FAIR      61  45  56 S12       30.36S
CHEYENNE MTN   PTSUNNY   56  43  61 NE3       30.33R
ELLICOTT       PTSUNNY  N/A N/A N/A S9        30.35S
FALCON           N/A     58  42  56 S14G20    30.39S
FORT CARSON    FAIR      64  45  51 SE12      30.33R
LIMON          CLOUDY    61  46  57 VRB5      30.34R
MONUMENT HILL  FAIR      59  43  55 S12       30.39S
CANON CITY     SUNNY     66  52  59 E6        30.31S
WALSENBURG     FAIR      64  48  55 CALM      30.35R
TRINIDAD       CLOUDY    61  46  57 VRB3      30.35R
$$

COZ042>045-048>051-090-091-241600-
...NORTHEAST COLORADO...

CITY           SKY/WX    TMP DP  RH WIND       PRES   REMARKS
GREELEY ARPT   CLOUDY    61  40  45 SE7       30.33S
AKRON          CLOUDY    58  43  57 E7        30.32S
BURLINGTON     CLOUDY    63  49  60 S10       30.31R
WRAY           CLOUDY    61  45  55 E9        30.31S
YUMA           CLOUDY    55  45  67 NE7       30.31S
STERLING       CLOUDY    63  46  55 NE5       30.30S
HOLYOKE        NOT AVBL
FORT MORGAN    CLOUDY    58  40  51 E6        30.32S
$$

COZ086-089-092>099-241600-
...SOUTHEAST COLORADO...

CITY           SKY/WX    TMP DP  RH WIND       PRES   REMARKS
PUEBLO         CLOUDY    65  51  60 CALM      30.29S
LA JUNTA       CLOUDY    68  46  45 SE10      30.29R
LAMAR          CLOUDY    71  49  45 E10       30.28R
SPRINGFIELD      N/A     64  45  49 S12       30.32R
$$




USA.gov is the U.S. government's official web portal to all federal, state and local government web resources and services.